Regional Weather Roundup
Issued by NWS Newport/Morehead, NC

Current Version | Previous Version | Graphics & Text | Print | Product List | Glossary Off
Versions: 1 2 3 4 5 6 7 8 9 10 11 12 13 14 15 16 17 18 19 20 21 22 23 24 25 26 27 28 29 30 31 32 33 34 35 36 37 38 39 40 41 42 43 44 45 46 47 48 49 50

000
ASUS42 KMHX 220213
RWRMHX
WEATHER ROUNDUP FOR EASTERN NORTH CAROLINA
NATIONAL WEATHER SERVICE NEWPORT/MOREHEAD CITY NC
900 PM EST TUE FEB 21 2017

NOTE: "FAIR" INDICATES FEW OR NO CLOUDS BELOW 12,000 FEET
WITH NO SIGNIFICANT WEATHER AND/OR OBSTRUCTIONS TO VISIBILITY

NCZ015>017-031-032-045>047-102-103-220300-
NORTH COAST

CITY           SKY/WX    TMP DP  RH WIND       PRES   REMARKS
EDENTON        PTCLDY    50  46  84 E3        30.19R
ELIZABETH CITY PTCLDY    47  43  86 NE6       30.18F
KITTY HAWK     NOT AVBL
MANTEO         MOCLDY    48  48  97 NE3       30.18R

$$

NCZ045>047-081-094-103-104-220300-
CENTRAL COAST

CITY           SKY/WX    TMP DP  RH WIND       PRES   REMARKS
FRISCO         MOCLDY    57  51  80 CALM      30.16S

$$

NCZ095-097-098-100-101-220300-
SOUTHERN COAST

CITY           SKY/WX    TMP DP  RH WIND       PRES   REMARKS
BEAUFORT       CLOUDY    53  50  89 CALM      30.15S
CEDAR ISLAND   NOT AVBL
JACKSONVILLE   PTCLDY    56  52  86 E6        30.14S
PINEY ISLAND   CLOUDY   N/A N/A N/A NE7       30.15S HAZE
WILMINGTON     CLOUDY    56  53  90 E5        30.13S


$$

NCZ011>013-027>030-043-044-078>080-089-090>093-098-220300-
COASTAL PLAIN

CITY           SKY/WX    TMP DP  RH WIND       PRES   REMARKS
AHOSKIE          N/A     50  44  79 E3        30.18S
CLINTON        PTCLDY    55  49  80 CALM      30.14S
ELIZABETHTOWN  MOCLDY    59  51  76 CALM      30.13S
GOLDSBORO      CLOUDY    55  53  91 E5        30.13R
GREENVILLE     MOCLDY    54  46  76 E3        30.18R
HAVELOCK       PTCLDY    53  49  86 NE3       30.16F
KENANSVILLE    NOT AVBL
KINSTON        MOCLDY    55  48  76 E3        30.16S
NEW BERN       CLOUDY    52  50  93 E5        30.17S
RICHLANDS      CLOUDY    54  50  86 E5        30.15S
ROCKY MOUNT    MOCLDY    53  47  79 E5        30.16S
WASHINGTON     CLOUDY    51  46  82 NE3       30.17S
WHITEVILLE     CLOUDY    59  51  75 E5        30.12S

$$

AMZ130-135-150-152-154-156-158-170-250-252-270-ANZ085-086-088-633-658-670-220300-
MARINE OBSERVATIONS

STATION/POSITION TIME  TEMP    WIND        PRES    WAVE   SWELL
                       AIR SEA DIR/SP/G            HT/PER HT/PER
                 (UTC) (F)     (DEG/KT/KT) (MB)    (FT/S) (FT/S)
CHESAPEAKE LIGHT NOT AVBL
64 E VA BEACH    0150   53 52   80/ 12/ 14 1021.7    4/ 8   3/ 8
DUCK             0148   49 49   30/  8/  9 1021.5
2 E DUCK         0200      49                N/A     3/ 6
OREGON INLET     0148           30/  4/  5 1021.5
13E OREGON INLT  NOT AVBL
HATTERAS CG      0148   57 58   50/  3/  3 1020.9
DIAMOND BUOY     0150   63 74  140/ 12/ 16 1021.1    4/ 7   3/ 7
CAPE LOOKOUT     0200   62     110/  9/  9 1020.4
BEAUFORT LAB     0148   54 54   30/  4/  6 1019.8
30 SE NEW RVR IN 0108   66     130/ 14/ 17 1020.3
30 SE NEW RVR IN 0143      69                N/A     4/ 7
27 SE WRIGHTSVLE 0108   66 64  130/ 14/ 17 1019.4
5 SE WRIGHTSVLE  0108   58 56   80/  8/ 14 1020.0
225 S CAPE HAT   0150   64 71   80/ 12/ 14 1020.3    5/ 8   5/ 8
41 SE CHARLESTON 0150   70 69  120/ 16/ 17 1017.5    4/ 6   2/14

$$




USA.gov is the U.S. government's official web portal to all federal, state and local government web resources and services.